Time,TemperatureF,DewpointF,PressureIn,WindDirection,WindDirectionDegrees,WindSpeedMPH,WindSpeedGustMPH,Humidity,HourlyPrecipIn,Conditions,Clouds,dailyrainin,SoftwareType,DateUTC
2013-05-04 00:02:00,44.0,-9.0,29.84,SW,232,6.0,7.0,10,0.12,,,0.88,,2013-05-04 05:02:00,
2013-05-04 00:11:00,44.0,-9.0,29.84,SW,229,7.0,7.0,10,0.12,,,0.88,,2013-05-04 05:11:00,
2013-05-04 00:22:00,44.0,-9.0,29.84,SW,229,7.0,7.0,10,0.12,,,0.88,,2013-05-04 05:22:00,
2013-05-04 00:32:00,44.0,-9.0,29.84,SW,224,1.0,13.0,10,0.91,,,0.91,,2013-05-04 05:32:00,
2013-05-04 00:42:00,44.0,-9.0,29.84,SW,224,1.0,13.0,10,0.91,,,0.91,,2013-05-04 05:42:00,
2013-05-04 00:52:00,44.0,-9.0,29.85,SW,236,5.0,13.0,10,0.91,,,0.91,,2013-05-04 05:52:00,
2013-05-04 01:01:00,44.0,-9.0,29.85,WSW,237,5.0,10.0,10,0.02,,,0.02,,2013-05-04 06:01:00,
2013-05-04 01:11:00,44.0,-9.0,29.82,WSW,251,2.0,10.0,10,0.02,,,0.02,,2013-05-04 06:11:00,
2013-05-04 01:21:00,44.0,-9.0,29.82,WSW,251,2.0,10.0,10,0.02,,,0.02,,2013-05-04 06:21:00,
2013-05-04 01:32:00,44.0,-9.0,29.82,WSW,258,2.0,11.0,10,0.04,,,0.04,,2013-05-04 06:32:00,
2013-05-04 01:41:00,44.0,-9.0,29.82,WSW,258,2.0,11.0,10,0.04,,,0.04,,2013-05-04 06:41:00,
2013-05-04 01:52:00,44.0,-9.0,29.83,WSW,257,3.0,11.0,10,0.04,,,0.04,,2013-05-04 06:52:00,
2013-05-04 02:01:00,44.0,-9.0,29.80,WSW,243,1.0,11.0,10,0.06,,,0.08,,2013-05-04 07:01:00,
2013-05-04 02:11:00,44.0,-9.0,29.80,WSW,243,1.0,11.0,10,0.06,,,0.08,,2013-05-04 07:11:00,
2013-05-04 02:21:00,44.0,-9.0,29.80,WSW,243,1.0,11.0,10,0.06,,,0.08,,2013-05-04 07:21:00,
2013-05-04 02:32:00,45.0,-8.0,29.80,WSW,239,3.0,12.0,10,0.08,,,0.12,,2013-05-04 07:32:00,
2013-05-04 02:42:00,45.0,-8.0,29.80,WSW,239,3.0,12.0,10,0.08,,,0.12,,2013-05-04 07:42:00,
2013-05-04 02:52:00,45.0,-8.0,29.79,SW,234,0.0,12.0,10,0.08,,,0.12,,2013-05-04 07:52:00,
2013-05-04 03:01:00,45.0,-8.0,29.78,NW,311,0.0,7.0,10,0.06,,,0.14,,2013-05-04 08:01:00,
2013-05-04 03:11:00,45.0,-8.0,29.78,NW,311,0.0,7.0,10,0.06,,,0.14,,2013-05-04 08:11:00,
2013-05-04 03:21:00,44.0,-9.0,29.79,WSW,237,5.0,7.0,10,0.06,,,0.14,,2013-05-04 08:21:00,
2013-05-04 03:31:00,44.0,-9.0,29.79,WSW,244,1.0,8.0,10,0.07,,,0.19,,2013-05-04 08:31:00,
2013-05-04 03:41:00,44.0,-9.0,29.79,WSW,244,1.0,8.0,10,0.07,,,0.19,,2013-05-04 08:41:00,
2013-05-04 03:52:00,44.0,-9.0,29.79,SW,226,0.0,8.0,10,0.07,,,0.19,,2013-05-04 08:52:00,
2013-05-04 04:02:00,44.0,-9.0,29.80,WSW,254,4.0,7.0,10,0.11,,,0.25,,2013-05-04 09:02:00,
2013-05-04 04:11:00,44.0,-9.0,29.80,WSW,254,4.0,7.0,10,0.11,,,0.25,,2013-05-04 09:11:00,
2013-05-04 04:21:00,44.0,-9.0,29.80,WSW,237,5.0,7.0,10,0.11,,,0.25,,2013-05-04 09:21:00,
2013-05-04 04:32:00,44.0,-9.0,29.80,SW,226,2.0,8.0,10,0.11,,,0.30,,2013-05-04 09:32:00,
2013-05-04 04:42:00,44.0,-9.0,29.80,SW,226,2.0,8.0,10,0.11,,,0.30,,2013-05-04 09:42:00,
2013-05-04 04:52:00,44.0,-9.0,29.80,WSW,257,1.0,8.0,10,0.11,,,0.30,,2013-05-04 09:52:00,
2013-05-04 05:02:00,44.0,-9.0,29.80,West,268,1.0,7.0,10,0.08,,,0.33,,2013-05-04 10:02:00,
2013-05-04 05:12:00,44.0,-9.0,29.80,West,268,1.0,7.0,10,0.08,,,0.33,,2013-05-04 10:12:00,
2013-05-04 05:22:00,44.0,-9.0,29.79,West,271,0.0,7.0,10,0.08,,,0.33,,2013-05-04 10:22:00,
2013-05-04 05:33:00,44.0,-9.0,29.80,West,270,1.0,7.0,10,0.09,,,0.39,,2013-05-04 10:33:00,
2013-05-04 05:42:00,44.0,-9.0,29.80,West,270,1.0,7.0,10,0.09,,,0.39,,2013-05-04 10:42:00,
2013-05-04 05:53:00,44.0,-9.0,29.81,SW,217,7.0,7.0,10,0.09,,,0.39,,2013-05-04 10:53:00,
2013-05-04 06:02:00,44.0,-9.0,29.83,SW,219,3.0,8.0,10,0.15,,,0.48,,2013-05-04 11:02:00,
2013-05-04 06:11:00,44.0,-9.0,29.83,SW,219,3.0,8.0,10,0.15,,,0.48,,2013-05-04 11:11:00,
2013-05-04 06:21:00,44.0,-9.0,29.83,SW,229,6.0,8.0,10,0.15,,,0.48,,2013-05-04 11:21:00,
2013-05-04 06:32:00,44.0,-9.0,29.83,WSW,247,1.0,10.0,10,0.19,,,0.58,,2013-05-04 11:32:00,
2013-05-04 06:42:00,44.0,-9.0,29.83,WSW,247,1.0,10.0,10,0.19,,,0.58,,2013-05-04 11:42:00,
2013-05-04 06:55:00,44.0,-9.0,29.83,WSW,244,1.0,10.0,10,0.19,,,0.58,,2013-05-04 11:55:00,
2013-05-04 07:05:00,44.0,-9.0,29.83,WSW,237,1.0,7.0,10,0.12,,,0.60,,2013-05-04 12:05:00,
2013-05-04 07:13:00,44.0,-9.0,29.83,WSW,237,1.0,7.0,10,0.12,,,0.60,,2013-05-04 12:13:00,
2013-05-04 07:27:00,43.0,-10.0,29.84,WSW,239,2.0,7.0,10,0.12,,,0.60,,2013-05-04 12:27:00,
2013-05-04 07:36:00,43.0,-10.0,29.84,WSW,241,2.0,10.0,10,0.03,,,0.61,,2013-05-04 12:36:00,
2013-05-04 07:42:00,43.0,-10.0,29.84,WSW,241,2.0,10.0,10,0.03,,,0.61,,2013-05-04 12:42:00,
2013-05-04 07:52:00,43.0,-10.0,29.85,SW,224,4.0,10.0,10,0.03,,,0.61,,2013-05-04 12:52:00,
2013-05-04 08:01:00,43.0,-10.0,29.85,SW,232,0.0,7.0,10,0.01,,,0.61,,2013-05-04 13:01:00,
2013-05-04 08:11:00,43.0,-10.0,29.85,SW,232,0.0,7.0,10,0.01,,,0.61,,2013-05-04 13:11:00,
2013-05-04 08:32:00,44.0,-9.0,29.85,West,280,1.0,6.0,10,0.00,,,0.61,,2013-05-04 13:32:00,
2013-05-04 08:41:00,44.0,-9.0,29.85,West,280,1.0,6.0,10,0.00,,,0.61,,2013-05-04 13:41:00,
2013-05-04 08:52:00,44.0,-9.0,29.85,WSW,246,0.0,6.0,10,0.00,,,0.61,,2013-05-04 13:52:00,
2013-05-04 09:21:00,43.0,42.0,29.87,SW,216,7.0,7.0,98,0.00,,,0.61,,2013-05-04 14:21:00,
2013-05-04 10:02:00,45.0,42.0,29.87,WSW,239,3.0,10.0,90,0.00,,,0.61,,2013-05-04 15:02:00,
2013-05-04 10:11:00,45.0,42.0,29.87,WSW,239,3.0,10.0,90,0.00,,,0.61,,2013-05-04 15:11:00,
2013-05-04 10:22:00,45.0,42.0,29.87,West,277,2.0,10.0,90,0.00,,,0.61,,2013-05-04 15:22:00,
2013-05-04 10:33:00,46.0,42.0,29.87,WSW,250,2.0,10.0,87,0.00,,,0.61,,2013-05-04 15:33:00,
2013-05-04 10:43:00,46.0,42.0,29.87,WSW,250,2.0,10.0,87,0.00,,,0.61,,2013-05-04 15:43:00,
2013-05-04 10:52:00,46.0,42.0,29.87,WSW,250,2.0,10.0,87,0.00,,,0.61,,2013-05-04 15:52:00,
2013-05-04 11:03:00,47.0,42.0,29.88,WSW,239,2.0,7.0,84,0.00,,,0.61,,2013-05-04 16:03:00,
2013-05-04 11:12:00,47.0,42.0,29.88,WSW,239,2.0,7.0,84,0.00,,,0.61,,2013-05-04 16:12:00,
2013-05-04 11:22:00,48.0,41.0,29.88,SW,216,5.0,7.0,78,0.00,,,0.61,,2013-05-04 16:22:00,
2013-05-04 11:33:00,48.0,42.0,29.87,West,271,0.0,11.0,79,0.00,,,0.61,,2013-05-04 16:33:00,
2013-05-04 11:42:00,48.0,42.0,29.87,West,271,0.0,11.0,79,0.00,,,0.61,,2013-05-04 16:42:00,
2013-05-04 11:52:00,49.0,42.0,29.88,WNW,295,3.0,11.0,77,0.00,,,0.61,,2013-05-04 16:52:00,
2013-05-04 12:02:00,50.0,43.0,29.88,SW,230,6.0,7.0,77,0.00,,,0.61,,2013-05-04 17:02:00,
2013-05-04 12:12:00,50.0,43.0,29.88,SW,230,6.0,7.0,77,0.00,,,0.61,,2013-05-04 17:12:00,
2013-05-04 12:22:00,49.0,41.0,29.88,SW,233,7.0,7.0,75,0.00,,,0.61,,2013-05-04 17:22:00,
2013-05-04 12:32:00,49.0,41.0,29.88,WSW,240,7.0,12.0,75,0.00,,,0.61,,2013-05-04 17:32:00,
2013-05-04 12:42:00,49.0,41.0,29.88,WSW,240,7.0,12.0,75,0.00,,,0.61,,2013-05-04 17:42:00,
2013-05-04 12:52:00,51.0,42.0,29.88,SSW,209,2.0,12.0,70,0.00,,,0.61,,2013-05-04 17:52:00,
2013-05-04 13:01:00,51.0,43.0,29.87,West,260,5.0,11.0,74,0.00,,,0.61,,2013-05-04 18:01:00,
2013-05-04 13:12:00,51.0,43.0,29.87,West,260,5.0,11.0,74,0.00,,,0.61,,2013-05-04 18:12:00,
2013-05-04 13:21:00,51.0,42.0,29.86,WSW,254,0.0,11.0,70,0.00,,,0.61,,2013-05-04 18:21:00,
2013-05-04 13:32:00,52.0,41.0,29.85,SW,216,1.0,10.0,67,0.00,,,0.61,,2013-05-04 18:32:00,
2013-05-04 13:42:00,52.0,41.0,29.85,SW,216,1.0,10.0,67,0.00,,,0.61,,2013-05-04 18:42:00,
2013-05-04 13:52:00,53.0,42.0,29.85,SW,236,5.0,10.0,65,0.00,,,0.61,,2013-05-04 18:52:00,
2013-05-04 14:01:00,54.0,43.0,29.85,SW,232,4.0,10.0,65,0.00,,,0.61,,2013-05-04 19:01:00,
2013-05-04 14:11:00,54.0,43.0,29.85,SW,232,4.0,10.0,65,0.00,,,0.61,,2013-05-04 19:11:00,
2013-05-04 14:21:00,54.0,43.0,29.86,WSW,251,3.0,10.0,66,0.00,,,0.61,,2013-05-04 19:21:00,
2013-05-04 14:32:00,55.0,41.0,29.85,West,278,2.0,9.0,60,0.00,,,0.61,,2013-05-04 19:32:00,
2013-05-04 14:42:00,55.0,41.0,29.85,West,278,2.0,9.0,60,0.00,,,0.61,,2013-05-04 19:42:00,
2013-05-04 14:52:00,55.0,43.0,29.85,East,95,2.0,9.0,64,0.00,,,0.61,,2013-05-04 19:52:00,
2013-05-04 15:02:00,54.0,42.0,29.85,SW,220,5.0,10.0,64,0.00,,,0.61,,2013-05-04 20:02:00,
2013-05-04 15:11:00,54.0,42.0,29.85,SW,220,5.0,10.0,64,0.00,,,0.61,,2013-05-04 20:11:00,
2013-05-04 15:22:00,54.0,42.0,29.85,SSW,206,6.0,10.0,63,0.00,,,0.61,,2013-05-04 20:22:00,
2013-05-04 15:32:00,56.0,44.0,29.85,West,271,0.0,8.0,63,0.00,,,0.61,,2013-05-04 20:32:00,
2013-05-04 15:42:00,56.0,44.0,29.85,West,271,0.0,8.0,63,0.00,,,0.61,,2013-05-04 20:42:00,
2013-05-04 15:51:00,54.0,42.0,29.85,SW,236,3.0,8.0,64,0.00,,,0.61,,2013-05-04 20:51:00,
2013-05-04 16:02:00,55.0,42.0,29.86,NW,306,7.0,8.0,62,0.00,,,0.61,,2013-05-04 21:02:00,
2013-05-04 16:11:00,55.0,42.0,29.86,NW,306,7.0,8.0,62,0.00,,,0.61,,2013-05-04 21:11:00,
2013-05-04 16:22:00,56.0,41.0,29.86,West,275,6.0,8.0,57,0.00,,,0.61,,2013-05-04 21:22:00,
2013-05-04 16:33:00,55.0,42.0,29.85,NNW,332,2.0,10.0,61,0.00,,,0.61,,2013-05-04 21:33:00,
2013-05-04 16:43:00,55.0,42.0,29.85,NNW,332,2.0,10.0,61,0.00,,,0.61,,2013-05-04 21:43:00,
2013-05-04 16:52:00,55.0,41.0,29.85,SE,138,2.0,10.0,60,0.00,,,0.61,,2013-05-04 21:52:00,
2013-05-04 17:03:00,55.0,38.0,29.84,ESE,110,5.0,8.0,53,0.00,,,0.61,,2013-05-04 22:03:00,
2013-05-04 17:12:00,55.0,38.0,29.84,ESE,110,5.0,8.0,53,0.00,,,0.61,,2013-05-04 22:12:00,
2013-05-04 17:22:00,55.0,40.0,29.84,North,10,2.0,8.0,56,0.00,,,0.61,,2013-05-04 22:22:00,
2013-05-04 17:33:00,56.0,40.0,29.85,NNE,31,1.0,7.0,54,0.00,,,0.61,,2013-05-04 22:33:00,
2013-05-04 17:42:00,56.0,41.0,29.85,NW,308,3.0,7.0,56,0.00,,,0.61,,2013-05-04 22:42:00,
2013-05-04 17:52:00,56.0,41.0,29.85,NW,308,3.0,7.0,56,0.00,,,0.61,,2013-05-04 22:52:00,
2013-05-04 18:02:00,57.0,40.0,29.85,NNW,333,2.0,7.0,52,0.00,,,0.61,,2013-05-04 23:02:00,
2013-05-04 18:11:00,57.0,40.0,29.85,NNW,333,2.0,7.0,52,0.00,,,0.61,,2013-05-04 23:11:00,
2013-05-04 18:21:00,54.0,44.0,29.85,ENE,68,5.0,7.0,68,0.00,,,0.61,,2013-05-04 23:21:00,
2013-05-04 18:32:00,51.0,42.0,29.86,SE,127,3.0,12.0,72,0.00,,,0.61,,2013-05-04 23:32:00,
2013-05-04 18:42:00,51.0,42.0,29.86,SE,127,3.0,12.0,72,0.00,,,0.61,,2013-05-04 23:42:00,
2013-05-04 18:52:00,51.0,43.0,29.86,ENE,76,2.0,12.0,75,0.00,,,0.61,,2013-05-04 23:52:00,
2013-05-04 19:02:00,50.0,42.0,29.86,ENE,59,3.0,12.0,74,0.00,,,0.61,,2013-05-05 00:02:00,
2013-05-04 19:11:00,50.0,42.0,29.86,ENE,59,3.0,12.0,74,0.00,,,0.61,,2013-05-05 00:11:00,
2013-05-04 19:21:00,49.0,42.0,29.86,East,80,7.0,12.0,77,0.00,,,0.61,,2013-05-05 00:21:00,
2013-05-04 19:32:00,49.0,42.0,29.86,ENE,66,4.0,11.0,78,0.00,,,0.61,,2013-05-05 00:32:00,
2013-05-04 19:42:00,49.0,42.0,29.86,ENE,66,4.0,11.0,78,0.00,,,0.61,,2013-05-05 00:42:00,
2013-05-04 19:51:00,48.0,42.0,29.87,ENE,68,2.0,11.0,79,0.00,,,0.61,,2013-05-05 00:51:00,
2013-05-04 20:01:00,48.0,42.0,29.87,ENE,68,2.0,10.0,80,0.00,,,0.61,,2013-05-05 01:01:00,
2013-05-04 20:11:00,47.0,41.0,29.87,ENE,62,2.0,10.0,81,0.00,,,0.61,,2013-05-05 01:11:00,
2013-05-04 20:21:00,47.0,41.0,29.87,ENE,62,2.0,10.0,81,0.00,,,0.61,,2013-05-05 01:21:00,
2013-05-04 20:32:00,47.0,43.0,29.88,ENE,66,1.0,6.0,85,0.00,,,0.61,,2013-05-05 01:32:00,
2013-05-04 20:42:00,47.0,43.0,29.88,ENE,66,1.0,6.0,85,0.00,,,0.61,,2013-05-05 01:42:00,
2013-05-04 20:52:00,46.0,41.0,29.88,ENE,65,2.0,6.0,84,0.00,,,0.61,,2013-05-05 01:52:00,
2013-05-04 21:02:00,46.0,42.0,29.88,ENE,68,1.0,5.0,85,0.00,,,0.61,,2013-05-05 02:02:00,
2013-05-04 21:11:00,46.0,42.0,29.88,ENE,68,1.0,5.0,85,0.00,,,0.61,,2013-05-05 02:11:00,
2013-05-04 21:21:00,45.0,41.0,29.88,ESE,109,0.0,5.0,85,0.00,,,0.61,,2013-05-05 02:21:00,
2013-05-04 21:31:00,45.0,41.0,29.88,East,97,0.0,2.0,87,0.00,,,0.61,,2013-05-05 02:31:00,
2013-05-04 21:42:00,45.0,41.0,29.88,East,97,0.0,2.0,87,0.00,,,0.61,,2013-05-05 02:42:00,
2013-05-04 21:52:00,44.0,41.0,29.88,ENE,78,0.0,2.0,88,0.00,,,0.61,,2013-05-05 02:52:00,
2013-05-04 22:01:00,44.0,41.0,29.88,ENE,76,1.0,0.0,88,0.00,,,0.61,,2013-05-05 03:01:00,
2013-05-04 22:11:00,44.0,42.0,29.88,ENE,75,0.0,0.0,92,0.00,,,0.61,,2013-05-05 03:11:00,
2013-05-04 22:21:00,44.0,42.0,29.88,ENE,75,0.0,0.0,92,0.00,,,0.61,,2013-05-05 03:21:00,
2013-05-04 22:33:00,44.0,42.0,29.88,ENE,73,0.0,2.0,92,0.00,,,0.61,,2013-05-05 03:33:00,
2013-05-04 22:42:00,44.0,42.0,29.88,ENE,73,0.0,2.0,92,0.00,,,0.61,,2013-05-05 03:42:00,
2013-05-04 22:53:00,45.0,43.0,29.88,ENE,73,0.0,2.0,93,0.00,,,0.61,,2013-05-05 03:53:00,
2013-05-04 23:02:00,45.0,43.0,29.87,ENE,72,0.0,0.0,93,0.00,,,0.61,,2013-05-05 04:02:00,
2013-05-04 23:12:00,45.0,43.0,29.86,ENE,71,0.0,0.0,94,0.00,,,0.61,,2013-05-05 04:12:00,
2013-05-04 23:22:00,45.0,43.0,29.86,ENE,71,0.0,0.0,94,0.00,,,0.61,,2013-05-05 04:22:00,
2013-05-04 23:32:00,46.0,44.0,29.86,ENE,71,0.0,0.0,94,0.00,,,0.61,,2013-05-05 04:32:00,
2013-05-04 23:43:00,46.0,44.0,29.86,ENE,71,0.0,0.0,94,0.00,,,0.61,,2013-05-05 04:43:00,
2013-05-04 23:53:00,46.0,44.0,29.86,ENE,69,0.0,0.0,94,0.00,,,0.61,,2013-05-05 04:53:00,